www.pogodaiklimat.ru

Погода и климат >> Архив погоды >> Россия >> Приморский край >> Владивосток


АРХИВ ПОГОДЫ в Владивостоке

Время (UTC), дата Ветер
(напр.,м/с)
 
Видим.   Явления Облачность Т
(С)
Тd
(С)
f
(%)
Тe
(С)
Тes
(С)
Комфортность P
(гПа)
Po
(гПа)
Тmin
(С)
Tmax
(С)
R
(мм)
R24
(мм)
S
(см)
15 13.03 СЗ 8-12
{12}
50 км ясно -1.2 -13.5 39 -8 -8 по сезону 1013.7 990.1
18 13.03 СЗ 7
{13}
50 км ясно -2.4 -11.7 49 -9 -9 по сезону 1015.0 991.2
21 13.03 СЗ 5 50 км 4/4 600 м
[Sc]
-2.8 -11.0 53 -9 -9 по сезону 1016.6 992.7 -2.9
00 14.03 СЗ 3 50 км 3/0
[Ac lent]
-1.2 -10.2 50 -5 -2 по сезону 1018.0 994.3
03 14.03 СЗ 2 50 км 6/0
[Ac cast Cc]
+2.1 -8.8 44 -0 +9 тепло 1017.3 993.9
06 14.03 ЮВ 5 50 км 8/0
[Cc]
+3.6 -7.7 43 -1 +2 по сезону 1016.0 992.7
09 14.03 Ю 5
{10}
50 км 8/0
[Cc]
+0.7 -7.4 55 -5 -5 по сезону 1016.5 993.0 +4.4
12 14.03 Ю 4 50 км 3/0
[Cc]
-0.2 -5.4 68 -5 -5 по сезону 1017.6 994.0
15 14.03 ЮВ 4 50 км ясно -1.0 -3.9 81 -7 -7 по сезону 1017.3 993.6
18 14.03 ЮВ 5 50 км ясно -1.3 -3.3 86 -8 -8 по сезону 1016.6 992.9
21 14.03 ЮВ 4 50 км 6/0
[Ac cast]
-1.6 -3.2 89 -7 -7 по сезону 1016.4 992.7 -1.9
00 15.03 штиль 0 50 км 8/0
[Ac cast Cc]
+0.8 -2.6 78 -0 +4 тепло 1016.8 993.2 -2.1
03 15.03 З 2 50 км 4/4 600 м
[Sc]
+3.5 -9.0 39 +1 +8 тепло 1015.4 992.1
06 15.03 ЮЗ 3 50 км 6/6 600 м
[Sc]
+4.0 -9.5 37 +1 +3 тепло 1014.1 990.9
09 15.03 ЮЗ 2 50 км 3/3 600 м
[Sc]
+1.7 -7.1 52 -1 -1 по сезону 1014.5 991.1 +4.6
12 15.03 СЗ 2 50 км 3/3 600 м
[Sc]
+0.4 -6.8 58 -3 -3 по сезону 1015.8 992.3
15 15.03 С 4 50 км ясно -1.2 -6.3 68 -7 -7 по сезону 1016.2 992.5
18 15.03 С 4 50 км ясно -2.5 -6.8 72 -8 -8 по сезону 1016.6 992.8
21 15.03 С 3 50 км ясно -3.2 -8.6 66 -8 -8 по сезону 1017.1 993.2 -3.2
00 16.03 СЗ 3 50 км 3/0
[Cc]
-0.9 -10.7 47 -5 -1 по сезону 1017.7 994.0 -3.4
03 16.03 СЗ 5 50 км 6/0
[Ac cast Cc]
+2.5 -14.5 27 -2 +3 по сезону 1016.6 993.2
06 16.03 СВ 2 50 км 6/0
[Ac cast Cc]
+4.9 -15.4 21 +3 +9 тепло 1014.5 991.4
09 16.03 ЮЗ 4 50 км 1/0
[Ac lent]
+2.1 -12.7 32 -2 -2 по сезону 1015.6 992.2 +4.9
12 16.03 ЮЗ 4 50 км ясно +0.6 -8.2 52 -4 -4 по сезону 1017.6 994.0
15 16.03 ЮВ 2 50 км ясно -0.6 -7.9 58 -4 -4 по сезону 1017.9 994.2
18 16.03 ЮВ 1 50 км ясно -1.2 -5.1 75 -3 -3 тепло 1017.8 994.1
21 16.03 С 2 50 км ясно -2.3 -5.5 79 -6 -6 по сезону 1018.1 994.3 -2.4
00 17.03 СЗ 2 50 км ясно -0.2 -10.5 46 -3 +2 тепло 1019.4 995.7 -2.8
03 17.03 Ю 3 50 км ясно +5.4 -11.9 27 +3 +13 опасность
простуды
1018.4 995.2
06 17.03 Ю 6
{10}
50 км ясно +5.5 -6.5 42 +1 +4 тепло 1016.2 993.1
09 17.03 Ю 5 50 км ясно +2.7 -6.2 52 -2 -2 по сезону 1016.4 993.1 +7.0
12 17.03 ЮЗ 9-12
{15}
50 км 3/0
[Ci fib]
+1.9 -4.1 64 -5 -5 по сезону 1017.0 993.5
15 17.03 ЮЗ 5
{13}
50 км ясно +1.2 -3.5 71 -4 -4 по сезону 1017.0 993.5
18 17.03 ЮВ 4 50 км ясно +1.4 -3.6 69 -3 -3 по сезону 1015.9 992.5
21 17.03 ЮВ 8-10
{10}
10 км 10/10 300 м
[St]
+0.7 +0.2 96 -7 -7 по сезону 1014.2 990.7 -0.3
00 18.03 Ю 8-11
{12}
500 м туман ?/? +1.6 +1.3 98 -6 -6 по сезону 1013.0 989.7
03 18.03 ЮВ 12-15
{16}
500 м туман ?/? +3.3 +3.1 99 -5 -5 по сезону 1009.8 986.7
06 18.03 Ю 9-13
{16}
20 км {туман} 3/3 600 м
[Sc]
+4.9 +0.5 73 -1 -1 по сезону 1007.3 984.3
09 18.03 ЮВ 9-12
{14}
20 км 3/3 600 м
[Sc]
+2.8 +0.8 87 -4 -4 по сезону 1006.4 983.3 +5.0
12 18.03 ЮВ 7
{13}
20 км ясно +2.6 +0.4 85 -4 -4 по сезону 1007.7 984.5
15 18.03 ЮВ 4 20 км ясно +2.8 +0.1 82 -2 -2 тепло 1008.5 985.4
18 18.03 ЮЗ 1 20 км ясно +2.4 0.0 84 +1 +1 тепло 1009.0 985.8
21 18.03 З 2 20 км 3/0
[Ac lent]
+1.8 +0.2 89 -2 -2 тепло 1010.0 986.8 +1.2
00 19.03 С 6 20 км 4/0
[Cc]
+2.8 +0.3 84 -3 -1 по сезону 1012.0 988.8 +0.1
03 19.03 С 4 20 км 8/0
[Cc]
+8.3 -3.4 43 +6 +13 тепло 1011.9 989.1
06 19.03 Ю 3 20 км ясно +14.5 -6.7 22 +14 +20 тепло 1009.6 987.4
09 19.03 Ю 6 20 км ясно +9.1 -6.4 33 +6 +6 тепло 1009.1 986.4 +14.6
12 19.03 ЮВ 8
{10}
20 км ясно +4.0 -0.6 72 -2 -2 по сезону 1010.2 987.1
15 19.03 ЮВ 10-12
{14}
20 км ясно +4.6 -1.7 64 -2 -2 по сезону 1009.6 986.5
18 19.03 ЮВ 12-14
{14}
20 км ясно +4.0 -0.6 72 -3 -3 по сезону 1008.6 985.5
21 19.03 Ю 11-14
{14}
20 км ясно +3.9 -0.1 75 -3 -3 по сезону 1008.2 985.2 +3.7
00 20.03 Ю 9-12
{16}
10 км 10/10 600 м
[St]
+4.1 0.0 75 -2 -2 по сезону 1009.0 986.0 +3.4
03 20.03 Ю 4
{12}
10 км 10/10 600 м
[Sc]
+5.2 +0.3 71 +1 +1 тепло 1009.3 986.3
06 20.03 Ю 2 20 км 10/10 600 м
[Sc]
+5.4 +0.6 71 +3 +3 тепло 1008.4 985.4
09 20.03 С 3 20 км 10/10 600 м
[Sc]
+5.9 +0.5 68 +3 +3 тепло 1008.0 985.2 +6.3
12 20.03 С 10-14
{17}
20 км 10/10 600 м
[Sc]
+3.6 -6.1 49 -3 -3 по сезону 1008.8 985.7

 

Местоположение метеостанции Владивосток (Приморский край, Россия): широта 43.12 долгота 131.90 высота над уровнем моря 188 м.

В архиве по умолчанию представлена погода в Владивостоке за последнюю неделю. Архивные данные за месяц целиком и за предыдущие месяцы, начиная с января 2011 года, Вы можете получить, выбрав интересующий диапазон дат из раскрывающегося списка и нажав кнопку "Ввод!".


*Определитесь, кто Вы:
робот инопланетянин человек

Внимание! Время в таблицах - всемирное. Для получения местного времени необходимо прибавить поправку, которая равна 10 ч.

Смотрите также архив погоды в соседних городах и на ближайших метеорологических станциях:

Погода на Мысе Назимова (Приморский край, Россия) (8 км)
Погода в Барабаше (Приморский край, Россия) (42 км)
Погода в Многоудобном (Приморский край, Россия) (60 км)
Погода в Находке (Приморский край, Россия) (81 км)
Погода в Гамове (Приморский край, Россия) (84 км)
Погода в Тимирязевском (Приморский край, Россия) (85 км)
Погода в Партизанске (Приморский край, Россия) (89 км)
Погода в Посьете (Приморский край, Россия) (104 км)
Погода в Полтавке (Приморский край, Россия) (112 км)
Погода в Анучино (Приморский край, Россия) (130 км)

Пояснения к столбцам:

Ветер - указаны скорость ветра в м/с - средняя за 10 мин, порывы в срок и между сроками (в фигурных скобках) и направление, откуда дует ветер: С - северный, СВ - северо-восточный, В - восточный, ЮВ - юго-восточный, Ю - южный, ЮЗ - юго-западный, З - западный, СЗ - северо-западный.
Видимость - горизонтальная дальность видимости в метрах или километрах. При видимости от 1 до 10 км при отсутствии осадков обычно наблюдается дымка, при ухудшении видимости до 1 км и менее - туман. В сухую погоду видимость может ухудшаться дымом, пылью или мглою.
Явления - указаны атмосферные явления, наблюдавшиеся в срок или в последний час перед сроком; фигурными скобками обозначены явления, наблюдавшиеся между сроками (за 1-3 часа до срока); квадратными скобками обозначены град или гололедные отложения с указанием их диаметра в мм.
Облачность - указаны через наклонную черту общая и нижняя облачность в баллах и высота нижней границы облаков в метрах; квадратными скобками обозначены формы облаков: Ci - перистые, Cs - перисто-слоистые, Cc - перисто-кучевые, Ac - высококучевые, As - высокослоистые, Sc - слоисто-кучевые, Ns - слоисто-дождевые, Cu - кучевые, Cb - кучево-дождевые. Подробнее классификацию облаков см. в Атласе облаков (PDF).
T - Температура воздуха - температура, измеренная на высоте 2 м над землей.
Td - Температура точки росы - температура, при понижении до которой содержащийся в воздухе водяной пар достигнет насыщения.
f - Относительная влажность воздуха - влажноcть воздуха, измеренная на высоте 2 м над землей.
Te - Эффективная температура - температура, которую ощущает одетый по сезону человек в тени. Характеристика душности погоды. При расчете учитывается влияние влажности воздуха и скорости ветра на теплоощущения человека.
Tes - Эффективная температура на солнце - температура, которую ощущает человек, с поправкой на солнечный нагрев. Характеристика знойности погоды. Зависит от высоты солнца над горизонтом, облачности и скорости ветра. Ночью, в пасмурную погоду, а также при ветре 12 м/с и более поправка равна нулю.
P - Атмосферное давление - приведенное к уровню моря атмосферное давление.
Po - Атмосферное давление - измеренное на уровне метеостанции атмосферное давление.
Tmin - Минимальная температура - минимум температуры воздуха на высоте 2 м над землей.
Tmax - Максимальная температура - максимум температуры воздуха на высоте 2 м над землей.
R - Количество осадков - Количество выпавших осадков за период времени, мм. При наведении курсора мыши на число - период времени, за который выпало указанное количество осадков.
R24 - Количество осадков - Количество выпавших осадков за 24 часа, мм.
S - Снежный покров - Высота снежного покрова, см. При наведении курсора мыши на число - состояние снежного покрова и степень покрытия местности в баллах.